OE3APM-13 Weather Reports


Display with metric or nautical units.
time (UTC)temp
F
wind
direction
speed
MPH
gust
MPH
rain 1hr
in
rain 24hr
in
rain mn
in
humidity
%
barometer
mb
20260831180703 69 287 1.0 3.0 0.00 0.01 0.01 56 1017.1
20260831180200 70 287 1.0 3.0 0.00 0.01 0.01 52 1017.1
20260831175701 70 287 1.0 3.0 0.00 0.01 0.01 52 1017.0
20260831175159 71 287 1.0 3.0 0.00 0.01 0.01 51 1017.0
20260831174657 71 287 1.0 3.0 0.00 0.01 0.01 50 1016.9
20260831174155 72 284 1.0 4.0 0.00 0.01 0.01 50 1016.8
20260831173654 72 285 1.0 4.0 0.00 0.01 0.01 50 1016.8
20260831173154 72 271 2.0 6.0 0.00 0.01 0.01 49 1016.8
20260831172655 73 273 2.0 6.0 0.00 0.01 0.01 48 1016.9
20260831172153 73 249 2.0 5.0 0.00 0.01 0.01 47 1016.8
20260831171652 73 257 2.0 4.0 0.00 0.01 0.01 46 1016.8
20260831171152 73 280 4.0 9.0 0.00 0.01 0.01 46 1016.8
20260831170652 74 287 5.0 12.0 0.00 0.01 0.01 45 1016.8
20260831170151 74 288 5.0 12.0 0.00 0.01 0.01 45 1016.7
20260831165646 74 295 5.0 10.0 0.00 0.01 0.01 45 1016.7
20260831165140 74 296 5.0 10.0 0.00 0.01 0.01 44 1016.6
20260831164639 75 316 5.0 10.0 0.00 0.01 0.01 44 1016.6
20260831164133 75 342 4.0 9.0 0.00 0.01 0.01 44 1016.6
20260831163630 75 273 4.0 9.0 0.00 0.01 0.01 43 1016.5
20260831163130 76 261 4.0 8.0 0.00 0.01 0.01 42 1016.5
20260831162630 76 277 6.0 12.0 0.00 0.01 0.01 42 1016.5
20260831162130 76 280 6.0 12.0 0.00 0.01 0.01 42 1016.6
20260831161630 77 292 6.0 12.0 0.00 0.01 0.01 41 1016.6
20260831161130 77 285 7.0 18.0 0.00 0.01 0.01 41 1016.6
20260831160631 77 294 6.0 18.0 0.00 0.01 0.01 40 1016.7
20260831160132 78 260 5.0 14.0 0.00 0.01 0.01 41 1016.6
20260831155631 78 277 5.0 14.0 0.00 0.01 0.01 42 1016.6
20260831155131 78 288 5.0 13.0 0.00 0.01 0.01 41 1016.6
20260831154630 78 319 6.0 15.0 0.00 0.01 0.01 41 1016.7
20260831154130 78 331 7.0 15.0 0.00 0.01 0.01 40 1016.8
20260831153631 78 265 6.0 12.0 0.00 0.01 0.01 40 1016.8
20260831153133 78 274 6.0 14.0 0.00 0.01 0.01 40 1016.8
20260831152629 79 278 7.0 14.0 0.00 0.01 0.01 40 1016.8
20260831152130 79 314 7.0 13.0 0.00 0.01 0.01 40 1016.9
20260831151701 79 303 8.0 18.0 0.00 0.01 0.01 40 1016.9
20260831151130 79 278 8.0 18.0 0.00 0.01 0.01 40 1016.9
20260831150654 79 274 8.0 17.0 0.00 0.01 0.01 40 1016.9
20260831150130 79 294 8.0 17.0 0.00 0.01 0.01 39 1017.0
20260831145630 79 251 7.0 17.0 0.00 0.01 0.01 39 1016.9
20260831145130 79 340 7.0 16.0 0.00 0.01 0.01 39 1017.0
20260831144632 79 221 7.0 15.0 0.00 0.01 0.01 39 1016.9
20260831144132 79 287 7.0 15.0 0.00 0.01 0.01 39 1017.0
20260831143632 79 274 7.0 15.0 0.00 0.01 0.01 40 1017.0
20260831143129 79 259 8.0 15.0 0.00 0.01 0.01 39 1017.1
20260831142630 79 265 8.0 16.0 0.00 0.01 0.01 41 1017.1
20260831142129 80 275 8.0 18.0 0.00 0.01 0.01 42 1017.1
20260831141629 80 229 8.0 18.0 0.00 0.01 0.01 39 1017.0
20260831141130 80 239 9.0 17.0 0.00 0.01 0.01 38 1016.9
20260831140630 80 275 8.0 17.0 0.00 0.01 0.01 39 1016.9
20260831140121 80 248 8.0 17.0 0.00 0.01 0.01 40 1016.9
20260831135613 80 295 7.0 14.0 0.00 0.01 0.01 40 1016.9
20260831135112 80 277 6.0 15.0 0.00 0.01 0.01 40 1016.9
20260831134611 80 213 7.0 15.0 0.00 0.01 0.01 42 1016.9
20260831134111 79 264 8.0 15.0 0.00 0.01 0.01 43 1017.0
20260831133611 79 244 8.0 18.0 0.00 0.01 0.01 45 1017.0
20260831133110 79 277 8.0 21.0 0.00 0.01 0.01 43 1017.1
20260831132613 78 288 8.0 21.0 0.00 0.01 0.01 45 1017.0
20260831132110 78 247 8.0 16.0 0.00 0.01 0.01 47 1017.1
20260831131612 77 281 7.0 16.0 0.00 0.01 0.01 47 1017.1
20260831131110 78 277 7.0 15.0 0.00 0.01 0.01 47 1017.1
20260831130610 78 305 9.0 18.0 0.00 0.01 0.01 45 1017.2
20260831130109 80 297 8.0 18.0 0.00 0.01 0.01 45 1017.2
20260831125609 79 246 7.0 15.0 0.00 0.01 0.01 45 1017.2
20260831125107 78 258 6.0 15.0 0.00 0.01 0.01 47 1017.3
20260831124609 77 327 6.0 13.0 0.00 0.01 0.01 50 1017.3
20260831124102 76 285 8.0 15.0 0.00 0.01 0.01 52 1017.3
20260831123606 76 315 7.0 15.0 0.00 0.01 0.01 51 1017.2
20260831123103 76 296 6.0 14.0 0.00 0.01 0.01 53 1017.3
20260831122559 76 311 6.0 15.0 0.00 0.01 0.01 53 1017.2
20260831122052 76 292 7.0 15.0 0.00 0.01 0.01 52 1017.2
20260831121548 76 283 7.0 14.0 0.00 0.01 0.01 51 1017.2
20260831121046 76 290 8.0 16.0 0.00 0.01 0.01 51 1017.3
20260831120544 77 287 8.0 16.0 0.00 0.01 0.01 50 1017.3
20260831120053 77 300 7.0 15.0 0.00 0.01 0.01 51 1017.3
20260831115542 77 221 7.0 16.0 0.00 0.01 0.01 49 1017.3
20260831115044 77 277 7.0 16.0 0.00 0.01 0.01 54 1017.4
20260831114542 76 262 7.0 16.0 0.00 0.01 0.01 53 1017.4
20260831114043 77 284 7.0 16.0 0.00 0.01 0.01 52 1017.4
20260831113543 76 273 8.0 15.0 0.00 0.01 0.01 55 1017.4
20260831113040 76 284 7.0 15.0 0.00 0.01 0.01 56 1017.4
20260831112540 76 259 7.0 15.0 0.00 0.01 0.01 55 1017.4
20260831112040 76 247 6.0 15.0 0.00 0.01 0.01 55 1017.5
20260831111541 76 281 5.0 10.0 0.00 0.01 0.01 57 1017.5
20260831111041 76 323 6.0 15.0 0.00 0.01 0.01 56 1017.6
20260831110541 76 302 8.0 18.0 0.00 0.01 0.01 58 1017.6
20260831110048 77 298 9.0 19.0 0.00 0.01 0.01 56 1017.5
20260831105535 76 302 9.0 19.0 0.00 0.01 0.01 54 1017.6
20260831105034 76 284 10.0 17.0 0.00 0.01 0.01 57 1017.6
20260831104534 76 262 9.0 20.0 0.00 0.01 0.01 57 1017.6
20260831104035 76 250 9.0 22.0 0.00 0.01 0.01 58 1017.7
20260831103535 75 263 10.0 23.0 0.00 0.01 0.01 59 1017.7
20260831103035 74 215 9.0 23.0 0.00 0.01 0.01 64 1017.6
20260831102533 73 285 7.0 17.0 0.00 0.01 0.01 65 1017.4
20260831102034 72 277 6.0 13.0 0.00 0.01 0.01 68 1017.5
20260831101532 72 235 6.0 13.0 0.00 0.01 0.01 70 1017.7
20260831101033 71 323 7.0 16.0 0.00 0.01 0.01 70 1017.8
20260831100530 71 265 7.0 18.0 0.00 0.01 0.01 70 1017.8
20260831100031 72 219 6.0 18.0 0.00 0.01 0.01 70 1017.8
20260831095531 72 249 6.0 13.0 0.00 0.01 0.01 70 1017.7
20260831095030 72 191 7.0 15.0 0.00 0.01 0.01 72 1017.7
20260831094530 71 251 6.0 15.0 0.00 0.01 0.01 73 1017.7
20260831094030 71 262 6.0 15.0 0.00 0.01 0.01 74 1017.8
20260831093532 70 179 7.0 17.0 0.00 0.01 0.01 74 1017.7
20260831093030 70 231 8.0 17.0 0.00 0.01 0.01 73 1017.6
20260831092530 70 297 7.0 16.0 0.00 0.01 0.01 74 1017.5
20260831092030 70 219 7.0 13.0 0.00 0.01 0.01 75 1017.6
20260831091529 70 184 6.0 11.0 0.00 0.01 0.01 77 1017.5
20260831091030 69 227 6.0 12.0 0.00 0.01 0.01 78 1017.4
20260831090530 69 217 5.0 12.0 0.00 0.01 0.01 78 1017.6
20260831090030 69 246 5.0 10.0 0.00 0.01 0.01 79 1017.6
20260831085533 68 227 4.0 10.0 0.00 0.01 0.01 80 1017.5
20260831085030 68 236 3.0 10.0 0.00 0.01 0.01 80 1017.4
20260831084519 68 224 4.0 7.0 0.00 0.01 0.01 81 1017.4
20260831084014 67 234 3.0 7.0 0.00 0.01 0.01 80 1017.4
20260831083514 67 243 2.0 6.0 0.00 0.01 0.01 81 1017.4
20260831083016 67 273 2.0 8.0 0.00 0.01 0.01 82 1017.4
20260831082514 67 238 3.0 8.0 0.00 0.01 0.01 82 1017.3
20260831082017 67 10 3.0 7.0 0.00 0.01 0.01 83 1017.3
20260831081513 67 275 3.0 8.0 0.00 0.01 0.01 82 1017.1
20260831081012 67 262 4.0 8.0 0.00 0.01 0.01 82 1017.2
20260831080514 67 270 3.0 7.0 0.00 0.01 0.01 81 1017.1
20260831080012 66 296 3.0 7.0 0.00 0.01 0.01 81 1016.9
20260831075514 66 281 2.0 6.0 0.00 0.01 0.01 82 1016.9
20260831075006 66 268 3.0 6.0 0.00 0.01 0.01 84 1016.8
20260831074507 66 284 2.0 6.0 0.00 0.01 0.01 84 1016.7
20260831074006 65 265 1.0 5.0 0.00 0.01 0.01 85 1016.6
20260831073504 65 146 1.0 3.0 0.00 0.01 0.01 84 1016.2
20260831073003 65 213 3.0 6.0 0.00 0.01 0.01 84 1016.5
20260831072504 65 222 3.0 6.0 0.00 0.01 0.01 84 1016.8
20260831072002 65 217 3.0 6.0 0.00 0.01 0.01 84 1016.9
20260831071502 65 229 3.0 8.0 0.00 0.01 0.01 85 1017.0
20260831071003 65 278 3.0 8.0 0.00 0.01 0.01 85 1017.0
20260831070504 65 226 3.0 4.0 0.00 0.01 0.01 84 1016.6
20260831070003 65 213 3.0 6.0 0.00 0.01 0.01 85 1016.6
20260831065502 65 213 3.0 7.0 0.00 0.01 0.01 85 1016.5
20260831065001 65 217 3.0 7.0 0.00 0.01 0.01 87 1016.7
20260831064502 64 267 2.0 5.0 0.00 0.01 0.01 86 1016.6
20260831064002 64 250 2.0 5.0 0.00 0.01 0.01 86 1016.5
20260831063503 64 232 2.0 5.0 0.00 0.01 0.01 86 1016.5
20260831063005 64 257 2.0 3.0 0.00 0.01 0.01 87 1016.3
20260831062505 64 259 2.0 5.0 0.01 0.01 0.01 86 1016.1
20260831062004 64 260 3.0 5.0 0.01 0.01 0.01 86 1016.0
20260831061459 63 259 2.0 5.0 0.01 0.01 0.01 86 1015.8
20260831060944 63 180 2.0 8.0 0.01 0.01 0.01 86 1015.7
20260831060441 63 180 2.0 8.0 0.01 0.01 0.01 86 1015.7
20260831055941 63 109 3.0 7.0 0.01 0.01 0.01 87 1015.6
20260831055440 63 112 4.0 9.0 0.01 0.01 0.01 86 1015.6
20260831054941 63 167 6.0 12.0 0.01 0.01 0.01 86 1015.7
20260831054439 63 144 7.0 14.0 0.01 0.01 0.01 86 1015.5
20260831053942 63 159 7.0 14.0 0.01 0.01 0.01 86 1015.3
20260831053439 63 117 4.0 13.0 0.01 0.01 0.01 86 1015.4
20260831052943 62 93 3.0 9.0 0.01 0.01 0.00 87 1015.7
20260831052437 62 186 3.0 9.0 0.00 0.00 0.00 86 1015.9
20260831051936 62 110 2.0 6.0 0.00 0.00 0.00 87 1015.9
20260831051442 62 165 3.0 5.0 0.00 0.00 0.00 87 1015.9
20260831050942 62 178 2.0 5.0 0.00 0.00 0.00 87 1015.9
20260831050437 61 227 1.0 4.0 0.00 0.00 0.00 89 1015.8
20260831045934 61 212 2.0 3.0 0.00 0.00 0.00 90 1015.8
20260831045434 61 212 1.0 3.0 0.00 0.00 0.00 90 1015.9
20260831044934 61 178 3.0 8.0 0.00 0.00 0.00 90 1015.8
20260831044434 61 163 3.0 8.0 0.00 0.00 0.00 90 1015.9
20260831043930 61 181 1.0 4.0 0.00 0.00 0.00 91 1015.7
20260831043430 61 216 0.0 2.0 0.00 0.00 0.00 91 1015.7
20260831042930 61 217 1.0 5.0 0.00 0.00 0.00 91 1015.8
20260831042430 61 217 1.0 5.0 0.00 0.00 0.00 90 1015.8
20260831041931 61 259 0.0 0.0 0.00 0.00 0.00 90 1015.8
20260831041430 61 259 0.0 2.0 0.00 0.00 0.00 90 1015.7
20260831040930 61 259 1.0 3.0 0.00 0.00 0.00 90 1015.8
20260831040430 61 184 2.0 4.0 0.00 0.00 0.00 90 1015.8
20260831035932 61 185 2.0 5.0 0.00 0.00 0.00 90 1015.7
20260831035429 61 171 1.0 5.0 0.00 0.00 0.00 90 1015.7
20260831034931 61 106 0.0 3.0 0.00 0.00 0.00 90 1015.7
20260831034431 61 101 0.0 3.0 0.00 0.00 0.00 90 1015.8
20260831033932 61 101 1.0 3.0 0.00 0.00 0.00 90 1015.8
20260831033431 61 128 0.0 2.0 0.00 0.00 0.00 90 1015.8
20260831032930 61 128 1.0 4.0 0.00 0.00 0.00 90 1015.8
20260831032431 61 128 1.0 4.0 0.00 0.00 0.00 90 1015.8
20260831031932 61 0 2.0 5.0 0.00 0.00 0.00 90 1015.9
20260831031427 61 292 2.0 5.0 0.00 0.00 0.00 90 1015.9
20260831030926 61 9 1.0 4.0 0.00 0.00 0.00 90 1015.7
20260831030426 61 26 1.0 4.0 0.00 0.00 0.00 90 1015.6
20260831025927 61 82 2.0 5.0 0.00 0.00 0.00 90 1015.5
20260831025426 61 64 2.0 5.0 0.00 0.00 0.00 90 1015.6
20260831024927 61 77 1.0 4.0 0.00 0.00 0.00 90 1016.1
20260831024426 60 279 3.0 9.0 0.00 0.00 0.00 89 1016.2
20260831023921 60 279 2.0 9.0 0.00 0.00 0.00 90 1016.3
20260831023423 60 34 0.0 4.0 0.00 0.00 0.00 90 1016.1
20260831022922 60 59 0.0 0.0 0.00 0.00 0.00 89 1016.1
20260831022422 60 43 0.0 0.0 0.00 0.00 0.00 90 1016.1
20260831021923 60 128 0.0 0.0 0.00 0.00 0.00 90 1016.1
20260831021420 60 192 0.0 0.0 0.00 0.00 0.00 90 1016.5
20260831020920 60 192 0.0 0.0 0.00 0.00 0.00 90 1016.7
20260831020418 60 192 0.0 0.0 0.00 0.00 0.00 89 1016.8
20260831015916 60 192 0.0 0.0 0.00 0.00 0.00 90 1016.8
20260831015414 59 192 0.0 0.0 0.00 0.00 0.00 90 1016.8
20260831014916 59 213 0.0 0.0 0.00 0.00 0.00 89 1016.8
20260831014413 59 213 0.0 0.0 0.00 0.00 0.00 89 1016.8
20260831013912 59 213 0.0 0.0 0.00 0.00 0.00 90 1016.8
20260831013412 58 213 0.0 0.0 0.00 0.00 0.00 90 1016.8
20260831012910 58 213 0.0 0.0 0.00 0.00 0.00 90 1016.7
20260831012408 58 214 0.0 0.0 0.00 0.00 0.00 90 1016.7
20260831011906 58 229 0.0 0.0 0.00 0.00 0.00 89 1016.7
20260831011405 58 49 0.0 0.0 0.00 0.00 0.00 88 1016.5
20260831010907 58 49 0.0 0.0 0.00 0.00 0.00 88 1016.5
20260831010411 58 49 0.0 0.0 0.00 0.00 0.00 88 1016.5
20260831005911 58 49 0.0 0.0 0.00 0.00 0.00 87 1016.5
20260831005406 58 49 0.0 0.0 0.00 0.00 0.00 87 1016.5
20260831004906 58 49 0.0 0.0 0.00 0.00 0.00 87 1016.3
20260831004403 58 49 0.0 0.0 0.00 0.00 0.00 87 1016.3
20260831003904 58 49 0.0 0.0 0.00 0.00 0.00 87 1016.5
20260831003402 58 49 0.0 0.0 0.00 0.00 0.00 87 1016.6
20260831002902 58 49 0.0 0.0 0.00 0.00 0.00 87 1016.6
20260831002402 58 49 0.0 0.0 0.00 0.00 0.00 87 1016.6
20260831001911 58 49 0.0 0.0 0.00 0.00 0.00 86 1016.7
20260831001357 58 49 0.0 0.0 0.00 0.00 0.00 86 1016.7
20260831000856 58 49 0.0 0.0 0.00 0.00 0.00 86 1016.6
20260831000355 58 50 0.0 0.0 0.00 0.00 0.00 86 1016.6
20260830235852 58 46 0.0 0.0 0.00 0.00 0.00 86 1016.6
20260830235348 58 44 0.0 0.0 0.00 0.00 0.00 87 1016.7
20260830234847 58 44 0.0 0.0 0.00 0.00 0.00 87 1016.7
20260830234346 58 44 0.0 0.0 0.00 0.00 0.00 88 1016.7
20260830233845 58 44 0.0 0.0 0.00 0.00 0.00 88 1016.7
20260830233345 58 27 0.0 0.0 0.00 0.00 0.00 87 1016.9
20260830232845 58 27 0.0 0.0 0.00 0.00 0.00 87 1016.9
20260830232343 58 26 0.0 0.0 0.00 0.00 0.00 86 1016.8
20260830231840 58 44 0.0 0.0 0.00 0.00 0.00 85 1016.8
20260830231339 58 67 0.0 0.0 0.00 0.00 0.00 85 1016.8
20260830230836 58 67 0.0 0.0 0.00 0.00 0.00 85 1016.9
20260830230336 58 67 0.0 0.0 0.00 0.00 0.00 85 1016.9
20260830225835 58 67 0.0 0.0 0.00 0.00 0.00 85 1017.0
20260830225336 58 67 0.0 0.0 0.00 0.00 0.00 85 1017.0
20260830224832 59 67 0.0 0.0 0.00 0.00 0.00 85 1017.1
20260830224329 59 67 0.0 0.0 0.00 0.00 0.00 85 1017.0
20260830223829 58 67 0.0 0.0 0.00 0.00 0.00 85 1017.1
20260830223329 58 67 0.0 0.0 0.00 0.00 0.00 85 1017.1
20260830222831 59 67 0.0 0.0 0.00 0.00 0.00 85 1017.1
20260830222329 59 71 0.0 0.0 0.00 0.00 0.00 85 1017.2
20260830221829 59 71 0.0 0.0 0.00 0.00 0.00 85 1017.1
20260830221326 59 71 0.0 0.0 0.00 0.00 0.00 85 1017.1
20260830220829 59 71 0.0 0.0 0.00 0.00 0.00 85 1017.2
20260830220327 59 74 0.0 0.0 0.00 0.00 0.00 84 1017.2
20260830215826 59 74 0.0 0.0 0.00 0.00 0.00 83 1017.1
20260830215324 59 74 0.0 0.0 0.00 0.00 0.00 83 1017.1
20260830214825 59 74 0.0 0.0 0.00 0.00 0.00 84 1017.2
20260830214319 59 74 0.0 0.0 0.00 0.00 0.00 84 1017.2
20260830213819 59 74 0.0 0.0 0.00 0.00 0.00 83 1017.2
20260830213319 59 74 0.0 0.0 0.00 0.00 0.00 83 1017.2
20260830212814 59 74 0.0 0.0 0.00 0.00 0.00 83 1017.3
20260830212313 60 74 0.0 0.0 0.00 0.00 0.00 83 1017.3
20260830211812 60 74 0.0 0.0 0.00 0.00 0.00 82 1017.2
20260830211312 60 74 0.0 0.0 0.00 0.00 0.00 81 1017.2
20260830210810 60 74 0.0 0.0 0.00 0.00 0.00 81 1017.2
20260830210311 60 74 0.0 0.0 0.00 0.00 0.00 81 1017.2
20260830205812 60 88 0.0 0.0 0.00 0.00 0.00 79 1017.1
20260830205310 61 89 0.0 0.0 0.00 0.00 0.00 79 1017.1
20260830204810 61 89 0.0 0.0 0.00 0.00 0.00 79 1017.2
20260830204307 61 89 0.0 0.0 0.00 0.00 0.00 79 1017.1
20260830203804 61 89 0.0 0.0 0.00 0.00 0.00 79 1017.1
20260830203304 62 89 0.0 0.0 0.00 0.00 0.00 79 1017.1
20260830202804 62 89 0.0 0.0 0.00 0.00 0.00 79 1017.0
20260830202305 62 89 0.0 0.0 0.00 0.00 0.00 79 1017.0
20260830201801 62 89 0.0 0.0 0.00 0.00 0.00 78 1017.0
20260830201301 62 89 0.0 0.0 0.00 0.00 0.00 79 1016.9
20260830200753 62 89 0.0 0.0 0.00 0.00 0.00 77 1016.9
20260830200253 63 207 0.0 0.0 0.00 0.00 0.00 76 1017.0
20260830195740 63 190 0.0 1.0 0.00 0.00 0.00 75 1016.9
20260830195242 63 190 1.0 2.0 0.00 0.00 0.00 74 1016.9
20260830194731 64 190 1.0 2.0 0.00 0.00 0.00 74 1016.9
20260830194224 64 190 0.0 2.0 0.00 0.00 0.00 74 1016.9
20260830193721 65 191 0.0 0.0 0.00 0.00 0.00 74 1016.9
20260830193214 65 191 0.0 0.0 0.00 0.00 0.00 73 1017.0
20260830192714 65 191 0.0 0.0 0.00 0.00 0.00 73 1016.9
20260830192215 66 191 0.0 0.0 0.00 0.00 0.00 72 1016.9
20260830191713 66 191 0.0 2.0 0.00 0.00 0.00 72 1017.0
20260830191210 66 191 0.0 2.0 0.00 0.00 0.00 71 1017.0
20260830190710 67 191 1.0 1.0 0.00 0.00 0.00 71 1017.0
20260830190209 67 191 1.0 1.0 0.00 0.00 0.00 70 1016.9
20260830185708 68 191 0.0 1.0 0.00 0.00 0.00 69 1016.9
20260830185210 68 191 1.0 3.0 0.00 0.00 0.00 67 1017.0
20260830184709 69 191 1.0 3.0 0.00 0.00 0.00 66 1016.9
20260830184208 69 191 1.0 3.0 0.00 0.00 0.00 66 1016.9
20260830183709 69 192 1.0 3.0 0.00 0.00 0.00 64 1016.8
20260830183212 70 192 1.0 3.0 0.00 0.00 0.00 64 1016.6
20260830182706 70 189 0.0 1.0 0.00 0.00 0.00 64 1016.6
20260830182204 71 189 1.0 2.0 0.00 0.00 0.00 60 1016.7
20260830181703 71 189 2.0 3.0 0.00 0.00 0.00 59 1016.7
20260830181203 72 189 1.0 4.0 0.00 0.00 0.00 58 1016.7